Location: Houston
(29.7630°N, 95.3630°W)
Time: 14:15:24
(UTC-06:00)

Amateur Radio Satellites - All Passes

Search period start: 20 December 2014 13:45
Search period end: 21 December 2014 13:45
Location: Houston, 29.7630°N, 95.3630°W

Satellite Date Start Highest point End Downlink Frequencies (MHz)
Time Altitude Azimuth
AUBIESAT-1 20 Dec 13:51:14 13:54:34 24° 100° (E) 13:57:40 437.475
KKS-1 20 Dec 13:57:23 14:00:11 16° 95° (E) 14:02:58 437.445
SWISSCUBE 20 Dec 14:00:52 14:05:35 66° 284° (WNW) 14:10:17 437.505
ITUPSAT 1 20 Dec 14:01:13 14:05:58 74° 284° (WNW) 14:10:42 437.325
RS-15 20 Dec 14:01:28 14:09:47 24° 315° (NW) 14:18:11 29.354- 29.394
JUGNU 20 Dec 14:02:43 14:07:58 32° 181° (S) 14:13:11 437.505
Oscar 19 20 Dec 14:08:23 14:12:31 25° 263° (W) 14:16:42 437.125/150
PCSat 20 Dec 14:09:01 14:14:15 51° 297° (WNW) 14:19:32 145.827
M-CUBED/EXP-1 PRIME 20 Dec 14:16:05 14:20:15 60° 104° (ESE) 14:24:02 437.505
Gurwin Techsat 1B 20 Dec 14:16:13 14:21:30 76° 76° (ENE) 14:26:49 435.225
HORYU 2 20 Dec 14:19:45 14:23:27 26° 71° (ENE) 14:27:10 437.375
ITAMSAT 1 20 Dec 14:22:37 14:27:40 52° 259° (W) 14:32:43 435.822/435.867
BEESAT 20 Dec 14:26:14 14:30:35 37° 287° (WNW) 14:34:56 436.000
ISS 20 Dec 14:27:03 14:28:28 12° 325° (NW) 14:29:53 145.825
AIST 2 20 Dec 14:46:52 14:49:54 19° 305° (NW) 14:52:58 435.215
AO-7 20 Dec 14:48:05 14:55:17 34° 64° (ENE) 15:02:30 29.400- 29.500
SRMSAT 20 Dec 15:05:46 15:10:58 32° 178° (S) 15:16:09 437.500
AUBIESAT-1 20 Dec 15:26:23 15:29:19 19° 296° (WNW) 15:32:06 437.475
STARS 20 Dec 15:29:09 15:33:30 56° 285° (WNW) 15:37:51 437.465
AIST 1 20 Dec 15:29:32 15:29:51 10° 86° (E) 15:30:10
KKS-1 20 Dec 15:32:49 15:36:49 33° 287° (WNW) 15:40:48 437.445
JUGNU 20 Dec 15:51:46 15:56:33 25° 191° (S) 16:01:17 437.505
GONETS M04 20 Dec 15:53:13 15:59:38 22° 73° (ENE) 16:05:57
HORYU 2 20 Dec 15:56:44 16:00:01 20° 264° (W) 16:03:20 437.375
JAS-2 20 Dec 16:18:16 16:25:47 55° 73° (ENE) 16:32:46 435.910
AO-7 20 Dec 16:39:59 16:47:45 44° 259° (WSW) 16:55:36 29.400- 29.500
MOZHAYETS 4 20 Dec 16:41:08 16:45:16 32° 98° (E) 16:49:22
SRMSAT 20 Dec 16:54:46 16:59:42 27° 188° (S) 17:04:38 437.500
AIST 1 20 Dec 17:02:49 17:07:00 44° 278° (W) 17:11:12
Cubesat XI-IV 20 Dec 17:17:34 17:22:12 31° 71° (ENE) 17:26:50 437.490
PRISM 20 Dec 17:29:15 17:30:47 12° 94° (E) 17:32:17 437.425
JUGNU 20 Dec 17:42:29 17:45:01 13° 199° (SSW) 17:47:32 437.505
GONETS M04 20 Dec 17:48:19 17:56:52 62° 269° (W) 18:05:21
CUTE-I 20 Dec 17:50:06 17:55:22 68° 75° (ENE) 18:00:39 437.470
JAS-2 20 Dec 18:04:47 18:10:48 25° 264° (W) 18:16:35 435.910
CUBESAT XI-V 20 Dec 18:05:01 18:07:55 17° 95° (E) 18:10:48 437.345
STRAND 1 20 Dec 18:14:01 18:17:31 19° 96° (E) 18:21:01 437.568
MOZHAYETS 4 20 Dec 18:19:08 18:22:11 18° 290° (WNW) 18:25:14
MaSat-1 20 Dec 18:35:49 18:38:05 31° 67° (ENE) 18:40:30 437.345
SRMSAT 20 Dec 18:44:55 18:48:21 16° 197° (SSW) 18:51:46 437.500
RS-15 20 Dec 18:45:04 18:49:21 13° 32° (NNE) 18:53:40 29.354- 29.394
Cubesat XI-IV 20 Dec 18:57:57 19:02:12 24° 263° (W) 19:06:28 437.490
PRISM 20 Dec 19:02:34 19:06:23 37° 286° (WNW) 19:10:11 437.425
CUSAT 1 20 Dec 19:25:09 19:30:24 18° 72° (ENE) 19:35:47 437.405
BRITE-PL 20 Dec 19:32:16 19:33:56 12° 69° (ENE) 19:35:37 437.365/2234.400
CUTE 1.7 + AOD 2 20 Dec 19:33:45 19:35:21 12° 68° (ENE) 19:36:57 437.475
CUTE-I 20 Dec 19:35:02 19:35:45 10° 267° (W) 19:36:29 437.470
CUBESAT XI-V 20 Dec 19:41:15 19:45:22 33° 287° (WNW) 19:49:28 437.345
SO-50 20 Dec 19:50:40 19:53:38 18° 108° (ESE) 19:56:40 436.795
STRAND 1 20 Dec 19:52:05 19:56:44 37° 288° (WNW) 20:01:22 437.568
GOMX 1 20 Dec 19:57:26 20:00:08 17° 71° (ENE) 20:02:51 467.674
HO-68 20 Dec 20:05:58 20:12:53 53° 71° (ENE) 20:19:49 435.675
DANDE 20 Dec 20:15:18 20:22:46 39° 78° (ENE) 20:30:42 436.750
DOVE 4 20 Dec 20:21:43 20:25:03 24° 72° (ENE) 20:28:23 437.250
AAUSAT CUBESAT 2 20 Dec 20:22:30 20:26:08 29° 73° (ENE) 20:29:48 437.432
CANX-2 20 Dec 20:35:44 20:39:59 84° 78° (ENE) 20:44:17 2200.000
CINEMA 3 20 Dec 20:46:08 20:49:37 26° 72° (ENE) 20:53:08 145.822/145.860
RS-15 20 Dec 20:54:00 21:05:03 53° 58° (ENE) 21:16:31 29.354- 29.394
COMPASS 1 20 Dec 20:57:16 21:01:28 82° 258° (WSW) 21:05:43 437.405
ISS 20 Dec 20:57:48 21:00:55 42° 43° (NE) 21:04:01 145.825
SEEDS 20 Dec 21:03:04 21:07:12 55° 260° (W) 21:11:23 437.485
CUSAT 1 20 Dec 21:05:51 21:13:59 82° 264° (W) 21:22:28 437.405
FUNcube-1 20 Dec 21:06:11 21:09:06 19° 70° (ENE) 21:12:03 145.935
UWE-3 20 Dec 21:06:49 21:10:07 23° 72° (ENE) 21:13:28 435.000/436.395/437.385
CUTE 1.7 + AOD 2 20 Dec 21:06:49 21:10:50 42° 261° (W) 21:14:54 437.475
BRITE-PL 20 Dec 21:08:13 21:12:09 36° 261° (W) 21:15:58 437.365/2234.400
DELFI C3 20 Dec 21:13:17 21:17:13 48° 75° (ENE) 21:21:12 145.870
50 SAT 20 Dec 21:18:30 21:18:58 10° 68° (ENE) 21:19:26 437.505
DX 1 20 Dec 21:21:04 21:25:19 58° 75° (ENE) 21:29:35 434.975-435.025
AISAT 20 Dec 21:24:47 21:27:51 19° 70° (ENE) 21:30:54 437.250
SO-50 20 Dec 21:29:46 21:33:50 33° 302° (WNW) 21:38:02 436.795
GOMX 1 20 Dec 21:34:36 21:38:04 25° 263° (W) 21:41:31 467.674
HUMSAT D 20 Dec 21:38:32 21:41:58 26° 72° (ENE) 21:45:25 437.325/437.525
Oscar 11 20 Dec 21:43:23 21:47:36 54° 260° (W) 21:51:51 145.826/435.025
ANTELSAT 20 Dec 21:44:29 21:44:57 10° 93° (E) 21:45:25 437.575/2403.000
UKube-1 20 Dec 21:51:58 21:56:14 57° 259° (W) 22:00:30 .
HO-68 20 Dec 21:55:26 22:00:45 22° 264° (W) 22:06:07 435.675
DANDE 20 Dec 21:58:39 22:06:06 41° 269° (W) 22:14:00 436.750
AAUSAT CUBESAT 2 20 Dec 21:59:14 22:01:47 16° 265° (W) 22:04:21 437.432
DOVE 4 20 Dec 21:59:57 22:02:46 18° 264° (W) 22:05:35 437.250
CUBEBUG 2 20 Dec 22:04:37 22:08:38 49° 260° (W) 22:12:43 437.445
BEESAT 2 20 Dec 22:08:00 22:11:06 20° 56° (NE) 22:14:10 435.950
ZACube-1 20 Dec 22:14:23 22:18:26 54° 260° (W) 22:22:35 437.345
VELOX 1 20 Dec 22:16:24 22:20:49 80° 77° (ENE) 22:25:14 145.980
TIGRISAT 20 Dec 22:16:40 22:20:38 26° 97° (E) 22:24:34 435.000
POPSAT HIP 1 20 Dec 22:16:54 22:19:15 15° 95° (E) 22:21:37 437.405
ESTCUBE 1 20 Dec 22:20:02 22:24:00 30° 72° (ENE) 22:27:58 437.505/2401.250
CINEMA 3 20 Dec 22:24:11 22:26:48 16° 265° (W) 22:29:27 145.822/145.860
ISS 20 Dec 22:36:25 22:37:09 11° 235° (SW) 22:37:52 145.825
FUNcube-1 20 Dec 22:41:51 22:45:14 24° 263° (W) 22:48:41 145.935
BUGSAT 1 20 Dec 22:42:03 22:45:16 23° 97° (E) 22:48:30 437.445
DUCHIFAT 1 20 Dec 22:43:31 22:47:19 31° 98° (E) 22:51:07 145.980
UWE-3 20 Dec 22:43:34 22:46:34 19° 264° (W) 22:49:36 435.000/436.395/437.385
UNISAT 6 20 Dec 22:45:20 22:50:01 60° 101° (E) 22:54:39 437.425
50 SAT 20 Dec 22:49:56 22:53:43 42° 261° (W) 22:57:34 437.505
YUBILEINY 20 Dec 22:52:01 22:58:44 25° 85° (E) 23:05:25 435.215
CUSAT 1 20 Dec 22:52:39 22:56:06 13° 276° (W) 22:59:37 437.405
QB50P2 20 Dec 22:56:56 23:01:05 49° 100° (E) 23:05:14 145.880/145.840
AISAT 20 Dec 23:00:25 23:04:13 28° 262° (W) 23:08:02 437.250
PCSat 20 Dec 23:03:07 23:08:04 35° 61° (ENE) 23:12:59 145.827
CUBEBUG 1 20 Dec 23:04:56 23:09:19 79° 258° (WSW) 23:13:41 437.445
BEESAT 3 20 Dec 23:05:10 23:09:19 75° 245° (WSW) 23:13:23 437.485
POLYITAN 1 20 Dec 23:05:45 23:10:01 65° 101° (E) 23:14:17 437.675
RS-15 20 Dec 23:06:55 23:16:59 37° 253° (WSW) 23:27:29 29.354- 29.394
NANOSAT C BR1 20 Dec 23:07:48 23:12:03 68° 101° (ESE) 23:16:17 145.865
AIST 2 20 Dec 23:13:12 23:17:20 48° 61° (ENE) 23:21:24 435.215
HUMSAT D 20 Dec 23:15:00 23:17:42 17° 265° (W) 23:20:26 437.325/437.525
ANTELSAT 20 Dec 23:17:20 23:21:58 57° 285° (WNW) 23:26:35 437.575/2403.000
QB50P1 20 Dec 23:22:14 23:26:30 78° 283° (WNW) 23:30:46 145.935-145.965
BEESAT 2 20 Dec 23:45:48 23:49:17 26° 249° (WSW) 23:52:44 435.950
POPSAT HIP 1 20 Dec 23:51:20 23:55:10 33° 287° (WNW) 23:59:00 437.405
TIGRISAT 20 Dec 23:53:29 23:57:10 23° 289° (WNW) 00:00:51 435.000
ESTCUBE 1 20 Dec 23:57:45 00:00:50 18° 264° (W) 00:03:56 437.505/2401.250
TISAT 1 21 Dec 00:08:00 00:12:09 60° 259° (W) 00:16:18 437.305
SPROUT 21 Dec 00:12:06 00:16:19 60° 259° (W) 00:20:33 437.525
BUGSAT 1 21 Dec 00:17:40 00:20:35 19° 289° (WNW) 00:23:31 437.445
DUCHIFAT 1 21 Dec 00:20:20 00:22:52 16° 290° (WNW) 00:25:24 145.980
O/OREOS (USA 219) 21 Dec 00:22:21 00:26:44 62° 106° (ESE) 00:31:08 437.305
UNISAT 6 21 Dec 00:25:14 00:26:13 11° 293° (WNW) 00:27:12 437.425
AUBIESAT-1 21 Dec 00:34:37 00:37:43 17° 64° (ENE) 00:40:52 437.475
QB50P2 21 Dec 00:35:51 00:36:31 10° 292° (WNW) 00:37:11 145.880/145.840
YUBILEINY 21 Dec 00:46:26 00:54:54 54° 279° (W) 01:03:23 435.215
PCSat 21 Dec 00:47:03 00:51:12 23° 254° (WSW) 00:55:20 145.827
Oscar 19 21 Dec 00:47:24 00:50:40 17° 95° (E) 00:53:56 437.125/150
AIST 2 21 Dec 00:54:41 00:55:27 10° 253° (WSW) 00:56:12 435.215
M-CUBED/EXP-1 PRIME 21 Dec 00:59:01 01:03:20 35° 68° (ENE) 01:07:47 437.505
SWISSCUBE 21 Dec 01:01:23 01:06:09 71° 76° (ENE) 01:10:56 437.505
ITUPSAT 1 21 Dec 01:02:00 01:06:45 64° 75° (ENE) 01:11:30 437.325
BEESAT 21 Dec 01:26:21 01:31:06 65° 258° (WSW) 01:35:52 436.000
VERMONT LUNAR 21 Dec 02:04:53 02:08:23 68° 147° (SSE) 02:11:54 437.305
AUBIESAT-1 21 Dec 02:07:45 02:12:13 42° 257° (WSW) 02:16:52 437.475
STARS 21 Dec 02:20:17 02:24:34 58° 75° (ENE) 02:28:52 437.465
PHONESAT 2.4 21 Dec 02:20:23 02:23:56 54° 146° (SSE) 02:27:29 2401.200-2431.200
KKS-1 21 Dec 02:24:38 02:29:02 77° 258° (WSW) 02:33:29 437.445
Oscar 19 21 Dec 02:25:13 02:30:06 42° 287° (WNW) 02:34:57 437.125/150
M-CUBED/EXP-1 PRIME 21 Dec 02:34:53 02:38:19 20° 261° (W) 02:41:50 437.505
Gurwin Techsat 1B 21 Dec 02:38:45 02:43:54 50° 100° (E) 02:49:01 435.225
ITAMSAT 1 21 Dec 02:41:27 02:46:38 88° 283° (WNW) 02:51:49 435.822/435.867
AO-7 21 Dec 02:58:47 03:02:42 14° 94° (E) 03:06:36 29.400- 29.500
AIST 1 21 Dec 03:16:55 03:20:20 23° 79° (ENE) 03:23:44
MOZHAYETS 4 21 Dec 03:38:31 03:41:21 16° 69° (ENE) 03:44:12
VERMONT LUNAR 21 Dec 03:43:59 03:46:54 24° 342° (NNW) 03:49:50 437.305
HORYU 2 21 Dec 03:53:02 03:57:30 64° 284° (WNW) 04:01:57 437.375
PHONESAT 2.4 21 Dec 03:59:36 04:02:45 27° 340° (NNW) 04:05:55 2401.200-2431.200
Gurwin Techsat 1B 21 Dec 04:20:22 04:23:22 15° 293° (WNW) 04:26:22 435.225
GONETS M04 21 Dec 04:46:07 04:53:33 32° 86° (E) 05:00:59
AO-7 21 Dec 04:47:44 04:56:08 87° 287° (WNW) 05:04:29 29.400- 29.500
AIST 1 21 Dec 04:54:49 04:57:46 18° 271° (W) 05:00:42
MOZHAYETS 4 21 Dec 05:13:57 05:18:13 36° 262° (W) 05:22:31
JAS-2 21 Dec 05:20:28 05:25:54 73° 102° (ESE) 05:31:02 435.910
VERMONT LUNAR 21 Dec 05:24:04 05:26:01 14° 359° (N) 05:27:59 437.305
STRAND 1 21 Dec 05:25:02 05:27:54 15° 67° (ENE) 05:30:45 437.568
PHONESAT 2.4 21 Dec 05:40:03 05:42:12 15° 357° (N) 05:44:21 2401.200-2431.200
Cubesat XI-IV 21 Dec 05:41:27 05:45:21 21° 96° (E) 05:49:14 437.490
PRISM 21 Dec 05:46:51 05:51:02 68° 76° (ENE) 05:55:15 437.425
SO-50 21 Dec 06:06:31 06:11:10 42° 59° (ENE) 06:15:48 436.795
CUTE-I 21 Dec 06:13:34 06:18:39 45° 100° (E) 06:23:42 437.470
CUBESAT XI-V 21 Dec 06:38:04 06:42:44 71° 259° (WSW) 06:47:24 437.345
GONETS M04 21 Dec 06:41:41 06:49:58 44° 281° (W) 06:58:18
AO-7 21 Dec 06:43:29 06:47:43 15° 303° (WNW) 06:51:57 29.400- 29.500
STRAND 1 21 Dec 07:01:42 07:06:37 48° 260° (W) 07:11:33 437.568
VERMONT LUNAR 21 Dec 07:02:23 07:05:10 21° 16° (NNE) 07:07:58 437.305
PHONESAT 2.4 21 Dec 07:18:58 07:21:46 21° 15° (NNE) 07:24:34 2401.200-2431.200
Cubesat XI-IV 21 Dec 07:20:37 07:25:26 36° 288° (WNW) 07:30:15 437.490
HO-68 21 Dec 07:43:56 07:46:25 12° 93° (E) 07:48:53 435.675
SO-50 21 Dec 07:48:16 07:51:21 17° 252° (WSW) 07:54:25 436.795
MaSat-1 21 Dec 07:48:58 07:50:15 13° 107° (ESE) 07:51:29 437.345
CUTE-I 21 Dec 07:54:55 07:58:18 17° 293° (WNW) 08:01:41 437.470
GOMX 1 21 Dec 08:06:29 08:07:06 10° 94° (E) 08:07:42 467.674
DOVE 4 21 Dec 08:27:13 08:29:39 14° 95° (E) 08:32:08 437.250
CANX-2 21 Dec 08:28:05 08:31:33 23° 96° (E) 08:34:58 2200.000
VERMONT LUNAR 21 Dec 08:40:14 08:43:46 85° 211° (SSW) 08:47:18 437.305
COMPASS 1 21 Dec 08:47:54 08:51:27 25° 97° (E) 08:54:58 437.405
CINEMA 3 21 Dec 08:48:06 08:50:15 13° 94° (E) 08:52:24 145.822/145.860
SEEDS 21 Dec 08:54:01 08:58:00 37° 99° (E) 09:01:57 437.485
PHONESAT 2.4 21 Dec 08:57:10 09:00:48 81° 30° (NNE) 09:04:26 2401.200-2431.200
CUTE 1.7 + AOD 2 21 Dec 08:58:11 09:02:23 51° 100° (E) 09:06:33 437.475
DELFI C3 21 Dec 09:02:25 09:03:37 11° 94° (E) 09:04:49 145.870
TIGRISAT 21 Dec 09:12:41 09:13:41 11° 67° (ENE) 09:14:42 435.000
DX 1 21 Dec 09:16:49 09:19:34 16° 96° (E) 09:22:19 434.975-435.025
BRITE-PL 21 Dec 09:17:16 09:22:08 81° 283° (WNW) 09:27:24 437.365/2234.400
DANDE 21 Dec 09:25:15 09:28:09 35° 90° (E) 09:31:49 436.750
HO-68 21 Dec 09:27:31 09:34:41 85° 286° (WNW) 09:41:48 435.675
DUCHIFAT 1 21 Dec 09:33:03 09:34:24 11° 68° (ENE) 09:35:45 145.980
Oscar 11 21 Dec 09:36:56 09:41:04 42° 99° (E) 09:45:11 145.826/435.025
UNISAT 6 21 Dec 09:39:27 09:42:58 24° 71° (ENE) 09:46:32 437.425
GOMX 1 21 Dec 09:40:29 09:45:20 64° 284° (WNW) 09:50:30 467.674
QB50P2 21 Dec 09:45:34 09:48:22 18° 70° (ENE) 09:51:10 145.880/145.840
UKube-1 21 Dec 09:46:01 09:50:02 37° 99° (E) 09:54:01 .
AAUSAT CUBESAT 2 21 Dec 09:47:03 09:51:14 60° 284° (WNW) 09:55:22 437.432
POLYITAN 1 21 Dec 09:54:09 09:57:25 22° 71° (ENE) 10:00:41 437.675
NANOSAT C BR1 21 Dec 09:55:40 09:58:58 23° 72° (ENE) 10:02:17 145.865
CUBEBUG 2 21 Dec 10:01:22 10:05:58 54° 100° (E) 10:10:37 437.445
DOVE 4 21 Dec 10:02:45 10:07:28 50° 285° (WNW) 10:12:26 437.250
CANX-2 21 Dec 10:04:02 10:07:18 21° 289° (WNW) 10:10:33 2200.000
ZACube-1 21 Dec 10:08:59 10:13:22 45° 99° (E) 10:17:47 437.345
QB50P1 21 Dec 10:09:39 10:13:27 34° 74° (ENE) 10:17:16 145.935-145.965
ANTELSAT 21 Dec 10:10:34 10:14:50 60° 76° (ENE) 10:19:12 437.575/2403.000
JUGNU 21 Dec 10:12:18 10:15:55 16° 163° (SSE) 10:19:32 437.505
CUSAT 1 21 Dec 10:12:52 10:15:52 31° 286° (WNW) 10:19:43 437.405
VELOX 1 21 Dec 10:13:57 10:17:33 24° 97° (E) 10:21:09 145.980
VERMONT LUNAR 21 Dec 10:21:00 10:21:41 10° 222° (SW) 10:22:23 437.305
CINEMA 3 21 Dec 10:22:53 10:27:32 50° 285° (WNW) 10:32:20 145.822/145.860
COMPASS 1 21 Dec 10:23:58 10:26:57 19° 289° (WNW) 10:29:55 437.405
SEEDS 21 Dec 10:31:23 10:33:26 13° 291° (WNW) 10:35:28 437.485
DELFI C3 21 Dec 10:35:09 10:38:59 38° 286° (WNW) 10:42:47 145.870
FUNcube-1 21 Dec 10:35:21 10:39:55 86° 283° (WNW) 10:44:31 145.935
50 SAT 21 Dec 10:36:07 10:40:02 39° 99° (E) 10:43:56 437.505
PHONESAT 2.4 21 Dec 10:37:20 10:39:09 13° 221° (SW) 10:40:58 2401.200-2431.200
POPSAT HIP 1 21 Dec 10:37:59 10:42:11 83° 77° (ENE) 10:46:24 437.405
UWE-3 21 Dec 10:38:00 10:42:36 66° 284° (WNW) 10:47:14 435.000/436.395/437.385
O/OREOS (USA 219) 21 Dec 10:38:20 10:42:39 43° 69° (ENE) 10:46:58 437.305
TIGRISAT 21 Dec 10:45:45 10:49:54 49° 260° (W) 10:54:10 435.000
DX 1 21 Dec 10:51:59 10:55:47 30° 288° (WNW) 10:59:35 434.975-435.025
AISAT 21 Dec 10:56:52 11:01:19 88° 103° (ESE) 11:05:46 437.250
CUBEBUG 1 21 Dec 11:00:31 11:04:19 30° 98° (E) 11:08:08 437.445
BUGSAT 1 21 Dec 11:01:01 11:05:05 62° 259° (W) 11:09:07 437.445
YUBILEINY 21 Dec 11:03:50 11:12:23 59° 82° (E) 11:20:55 435.215
HUMSAT D 21 Dec 11:03:54 11:08:13 67° 283° (WNW) 11:12:32 437.325/437.525
DUCHIFAT 1 21 Dec 11:05:51 11:09:50 42° 261° (W) 11:13:49 145.980
RS-15 21 Dec 11:09:39 11:20:24 61° 111° (ESE) 11:31:02 29.354- 29.394
Oscar 11 21 Dec 11:15:00 11:16:48 12° 292° (WNW) 11:18:37 145.826/435.025
UNISAT 6 21 Dec 11:16:24 11:19:39 21° 264° (W) 11:22:57 437.425
SRMSAT 21 Dec 11:17:57 11:20:48 14° 161° (SSE) 11:23:38 437.500
HO-68 21 Dec 11:18:56 11:21:18 12° 301° (WNW) 11:23:41 435.675
QB50P2 21 Dec 11:20:27 11:24:02 27° 262° (W) 11:27:38 145.880/145.840
UKube-1 21 Dec 11:23:35 11:25:49 14° 292° (WNW) 11:28:03 .
POLYITAN 1 21 Dec 11:30:02 11:33:13 21° 263° (W) 11:36:25 437.675
NANOSAT C BR1 21 Dec 11:31:35 11:34:43 20° 264° (W) 11:37:52 145.865
CUBEBUG 2 21 Dec 11:40:31 11:42:10 12° 292° (WNW) 11:43:50 437.445
ZACube-1 21 Dec 11:47:13 11:49:18 13° 291° (WNW) 11:51:23 437.345
QB50P1 21 Dec 11:47:20 11:49:23 13° 265° (W) 11:51:26 145.935-145.965
VELOX 1 21 Dec 11:50:36 11:53:57 22° 289° (WNW) 11:57:19 145.980
ESTCUBE 1 21 Dec 11:55:13 11:59:34 51° 285° (WNW) 12:03:54 437.505/2401.250
ISS 21 Dec 11:58:18 12:01:01 24° 128° (SE) 12:03:44 145.825
BEESAT 2 21 Dec 11:58:24 12:00:50 16° 108° (ESE) 12:03:18 435.950
TISAT 1 21 Dec 11:59:17 12:03:06 33° 99° (E) 12:06:55 437.305
JUGNU 21 Dec 11:59:25 12:04:26 28° 172° (S) 12:09:27 437.505
Oscar 19 21 Dec 11:59:32 12:02:00 14° 66° (ENE) 12:04:29 437.125/150
SPROUT 21 Dec 12:05:09 12:09:08 36° 99° (E) 12:13:06 437.525
50 SAT 21 Dec 12:13:14 12:14:50 12° 291° (WNW) 12:16:27 437.505
O/OREOS (USA 219) 21 Dec 12:19:54 12:21:35 12° 261° (W) 12:23:16 437.305
CUBEBUG 1 21 Dec 12:37:38 12:40:25 17° 290° (WNW) 12:43:12 437.445
BEESAT 3 21 Dec 12:53:56 12:57:59 87° 297° (WNW) 13:02:07 437.485
YUBILEINY 21 Dec 13:02:12 13:08:26 23° 276° (W) 13:14:42 435.215
SRMSAT 21 Dec 13:04:37 13:09:27 26° 170° (S) 13:14:16 437.500
AIST 2 21 Dec 13:05:49 13:09:48 44° 113° (ESE) 13:13:52 435.215
SWISSCUBE 21 Dec 13:08:30 13:12:39 29° 98° (E) 13:16:45 437.505
ITUPSAT 1 21 Dec 13:09:26 13:13:27 27° 98° (E) 13:17:27 437.325
RS-15 21 Dec 13:23:48 13:33:12 32° 310° (NW) 13:42:40 29.354- 29.394
BEESAT 21 Dec 13:32:54 13:37:33 53° 101° (E) 13:42:10 436.000
ISS 21 Dec 13:34:55 13:37:31 21° 321° (NW) 13:40:08 145.825
BEESAT 2 21 Dec 13:35:07 13:38:46 31° 302° (WNW) 13:42:29 435.950
TISAT 1 21 Dec 13:36:14 13:38:36 15° 291° (WNW) 13:40:59 437.305
